Portada
METAR-TAF:

METAR-TAF

Aeroports :

Plymouth Municipal Airport

Plymouth, Massachusetts, Estats Units d'Amèrica

latitud: 41-54-31N, longitud: 070-43-41W, altitud: 45 m

Observació

L'informe es va fer fa 39 minuts, a les 15:59 UTC
Vent 3 kt del Sud-Oest
Temperatura 7°C
Humitat 93%
Pressió 1007 hPa
Visibilitat: 16.1 km
Cel ennuvolat a una alçada de 800 ft
Cel cobert a una alçada de 1200 ft

METAR: KPYM 191559Z AUTO 23003KT 10SM BKN008 OVC012 07/06 A2975 RMK AO2 CIG 006V010 T00670056

Hora: 11:38 (16:38 UTC)


TAF: manca

Observacions i pronòstics meteorològics de més de 4000 aeroports (METAR i TAF).

Les estacions disponibles són els punts grocs i vermells al mapa.

Posi el ratolí al punt desitjat per veure el nom de l'estació.

Feu clic per veure les observacions i els pronòstics meteorològics.

Per canviar el mapa: feu clic els botons verds amb una creu de color negre per apropar; al botó verd amb un guió per allunyar la imatge; o en les fletxes verdes per a mapes adjacents.


METAR-TAF: